星链-4566 (STARLINK-4566 )

导读

STARLINK-4566是美国于2022年8月31日发射的星链卫星,隶属于SpaceX公司的星链互联网星座项目。星链项目旨在通过近地轨道卫星群,为全球提供高速宽带互联网服务。该卫星发射后进入预定轨道,承担着为覆盖区域提供低延迟网络连接的任务,是星链大规模组网进程中的组成部分。

基本信息
目录编号:
53693
目录名称:
STARLINK-4566
国际标识:
2022-105AX
轨道中心:
EARTH
卫星名称:
星链-4566
卫星全名:
星链-4566 (STARLINK-4566 )
卫星状态:
在轨 (已飞行1474 天)
发射日期:
2022-08-31 UTC
国别 :
美国 (US)
星等 :
--
该卫星已列入 空间交会检测服务 Space Conjunction Data Service (SCDS) ,当前飞行风险评估等级: 无高风险
轨道信息
数据来源 国际轨道数据
星历时间: 2026-09-12T11:28:09+0800
23小时前
查看轨道信息
半长轴: 6843.71km
偏心率: 0.0002246
轨道倾角: 97.284°
近地点辐角 93.675°
升交点赤经 131.997°
平近点角 266.475°
近地点: 464.035km
远地点: 467.111km
周期: 93.907分钟
每日圈数: 15.334351
详细信息
固有亮度:
5
最大亮度:
2.5
卫星平台:
Starlink v1.5
覆盖范围:
全球
运营商:
太空探索技术公司
运营商所在国:
美国
制造商(研发单位):
太空探索技术公司
制造商所在国:
美国
使用方式:
暂无
卫星简介
星链(Starlink)计划是由太空探索技术公司(SpaceX)提出的一个巨型低轨卫星互联网星座项目,计划在2019年至2024年间在太空搭建由约1.2万颗卫星组成的“星链”网络,其中1584颗将部署在地球上空550千米处的近地轨道,并从2020年开始工作。该卫星仍在工作。
2D轨道图
3D轨道图
轨道高度分析图
轨道倾角分析图
轨道综合分析图
查看轨道综合分析图
交会数据列表
事件ID 空间交会对象 最接近时刻(TCA) 交会距离 交会风险概率(CRP) 交会风险指数(CRI) 操作
CDM_260913-011005-285005-369323
2026-09-13T
01:10:55+0000
2.586 km
极远距离
1.575859E-6 低风险 0.39
与全量物体交会距离演化趋势
与全量物体交会风险概率演化趋势